User: anonymous   Login
Location: Unspecified
(0.0000°N, 0.0000°E)
Time: 00:56:10
(UTC+00:00)
Language:

STARLINK-11676 [DTC] - Orbit

View from above orbital plane
View from above orbital plane
View from above satellite
View from above satellite

Ground track
Ground track

The orbit is defined by the following mean orbital elements,

1 63757U          26145.26499752 +.00000000 +00000-0 +14169-2 0 00006
2 63757  43.0004 190.2409 0001683 238.8152 121.2551 15.70953299    00
Epoch (UTC): 25 May 2026 06:21:35
Eccentricity: 0.0001683
inclination: 43.0004°
perigee height: 355 km
apogee height: 357 km
right ascension of ascending node: 190.2409°
argument of perigee: 238.8152°
revolutions per day: 15.70953299
mean anomaly at epoch: 121.2551°

The dashed part of the orbit path shows where the satellite is in the earth's shadow,  

DLR